This is the latest recevied weather packets stored in our database for station/object K2CAT. If no packets are shown the sender has not sent any weather packets the latest 10 day(s).
| Time | Temp. | Humidity | Pressure | Rain* | Wind** | Luminosity | Snow |
|---|---|---|---|---|---|---|---|
| 1777534812 | 8.33° C | 99% | 1008.4 hPa | 1.27 mm | - | 0 W/m² | - |
| 1777534509 | 8.33° C | 98% | 1008.3 hPa | 1.27 mm | - | 0 W/m² | - |
| 1777534206 | 8.33° C | 98% | 1008.4 hPa | 0 mm | - | 0 W/m² | - |
| 1777533904 | 8.33° C | 98% | 1008.3 hPa | 0 mm | - | 0 W/m² | - |
| 1777533601 | 8.33° C | 98% | 1008.5 hPa | 0 mm | - | 0 W/m² | - |
| 1777533296 | 8.33° C | 98% | 1008.4 hPa | 1.78 mm | - | 0 W/m² | - |
| 1777532993 | 8.33° C | 98% | 1008.4 hPa | 1.78 mm | - | 0 W/m² | - |
| 1777532690 | 8.33° C | 98% | 1008.5 hPa | 0 mm | - | 0 W/m² | - |
| 1777532387 | 8.33° C | 98% | 1008.6 hPa | 1.27 mm | - | 0 W/m² | - |
| 1777532083 | 8.33° C | 98% | 1008.7 hPa | 1.27 mm | - | 0 W/m² | - |
| 1777531779 | 8.33° C | 98% | 1008.6 hPa | 0 mm | - | 0 W/m² | - |
| 1777531475 | 8.33° C | 98% | 1008.7 hPa | 0 mm | - | 0 W/m² | - |
| 1777531173 | 8.33° C | 98% | 1008.7 hPa | 1.78 mm | - | 0 W/m² | - |
| 1777530871 | 8.33° C | 98% | 1008.6 hPa | 6.6 mm | - | 0 W/m² | - |
| 1777530568 | 8.33° C | 98% | 1008.7 hPa | 6.1 mm | - | 0 W/m² | - |
| 1777530265 | 8.89° C | 98% | 1008.7 hPa | 4.32 mm | - | 0 W/m² | - |
| 1777529961 | 8.89° C | 98% | 1008.7 hPa | 3.05 mm | - | 0 W/m² | - |
| 1777529659 | 8.33° C | 98% | 1008.8 hPa | 1.78 mm | - | 0 W/m² | - |
| 1777529355 | 8.33° C | 98% | 1008.6 hPa | 3.05 mm | - | 0 W/m² | - |
| 1777529052 | 8.33° C | 98% | 1008.7 hPa | 4.32 mm | - | 0 W/m² | - |
| 1777528746 | 8.89° C | 98% | 1008.8 hPa | 3.05 mm | - | 0 W/m² | - |
| 1777528444 | 8.89° C | 98% | 1008.9 hPa | 3.05 mm | - | 0 W/m² | - |
| 1777528143 | 8.89° C | 98% | 1008.9 hPa | 3.05 mm | - | 0 W/m² | - |
| 1777527840 | 8.89° C | 98% | 1008.9 hPa | 1.27 mm | - | 0 W/m² | - |
| 1777527535 | 8.89° C | 97% | 1009 hPa | 3.05 mm | - | 0 W/m² | - |
* Rain latest hour (hover to see other rain measurements)
** Current wind speed in m/s (hover to see current wind gust speed)